[[{"header":{"parameterUnit":"m.s-1","parameterCategory":1,"la1":30.2991,"la2":30.254,"lo1":-89.0895,"lo2":-89.0444,"dy":0.0017,"dx":0.0017,"nx":28,"ny":28,"refTime":"2025-04-30T09:00:00:Z","depth":0,"parameterNumber":2,"parameterNumberName":"U-component_of_WINDS"},"data":[0,0,0,0,0,0,0,0,0,0,0,0,0,0,0,0,0,0,0,0,0,0,0,0,0,0,0,0,0,0,0,0,0,0,0,0,0,0,0,0,0,0,0,0,0,0,0,0,0,0,0,0,0,0,0,0,0,0,-0.5433,-0.5432,0,-0.5397,-0.5396,-0.5396,-0.5376,-0.5376,-0.5376,-0.5376,-0.534,-0.5339,-0.5338,0,0,0,0,0,0,0,0,0,0,0,0,0,-0.5486,-0.5485,-0.5433,-0.5432,-0.5432,-0.5397,-0.5396,-0.5396,-0.5376,-0.5376,-0.5376,-0.5376,-0.534,-0.5339,-0.5338,0,0,0,0,0,0,0,0,0,0,0,0,0,-0.5458,-0.5485,-0.5433,-0.5418,-0.5416,-0.5397,-0.5396,-0.5396,-0.5376,-0.5376,-0.5376,-0.5376,-0.534,-0.5339,-0.5338,-0.5331,0,0,-0.5334,-0.5333,0,0,0,0,0,0,0,0,-0.5459,-0.5456,-0.542,-0.5419,-0.5417,-0.5391,-0.5402,-0.5374,-0.5376,-0.5391,-0.5376,-0.5376,-0.5357,-0.5354,-0.5348,-0.533,-0.5328,-0.5334,-0.5333,-0.5332,-0.5332,0,0,0,0,0,0,0,-0.5461,-0.5457,-0.5418,-0.542,-0.5418,-0.5413,-0.5409,-0.5397,-0.5375,-0.539,-0.5388,-0.5384,-0.5356,-0.5349,-0.5347,-0.5328,-0.5334,-0.5332,-0.5332,-0.5331,-0.5304,-0.5305,0,0,0,0,0,0,-0.5466,-0.5459,-0.542,-0.5417,-0.5438,-0.5412,-0.5408,-0.5399,-0.5375,-0.5371,-0.5384,-0.5383,-0.5351,-0.5348,-0.5345,-0.5337,-0.5332,-0.5331,-0.533,-0.5304,-0.5304,-0.5305,0,0,0,0,0,0,-0.5467,-0.5462,-0.5421,-0.5438,-0.5432,-0.5412,-0.5402,-0.5398,-0.5391,-0.5371,-0.5367,-0.5381,-0.5351,-0.5347,-0.5335,-0.5335,-0.533,-0.5329,-0.5304,-0.5304,-0.5305,-0.532,0,0,0,0,0,0,-0.5468,-0.5463,-0.5459,-0.5438,-0.5431,-0.5411,-0.5402,-0.5398,-0.5389,-0.5388,-0.5367,-0.5363,-0.5351,-0.5337,-0.5334,-0.5333,-0.5328,-0.5304,-0.5304,-0.5304,-0.5319,-0.5321,-0.5322,0,0,0,0,0,-0.547,-0.5465,-0.5459,-0.5455,-0.5427,-0.5411,-0.5407,-0.5393,-0.5389,-0.5386,-0.5373,-0.5364,-0.5336,-0.5336,-0.5332,-0.5331,-0.5304,-0.5304,-0.5304,-0.5319,-0.532,-0.5322,0,0,0,0,0,0,-0.5487,-0.5462,-0.5455,-0.5443,-0.5429,-0.5408,-0.5403,-0.5394,-0.5382,-0.5381,-0.5364,-0.5359,-0.5349,-0.5339,-0.534,-0.5325,-0.5319,-0.5319,-0.5331,-0.5333,-0.5334,-0.5336,-0.5327,0,0,0,0,0,-0.5489,-0.5478,-0.5457,-0.5448,-0.5441,-0.5424,-0.5416,-0.5406,-0.5392,-0.5386,-0.5372,-0.5358,-0.5347,-0.5339,-0.5327,-0.5318,-0.5314,-0.5316,-0.5317,-0.5318,-0.5318,-0.5313,-0.5314,-0.5305,-0.5305,-0.5305,0,0,-0.5493,-0.5478,-0.5472,-0.5451,-0.5439,-0.5429,-0.5419,-0.5408,-0.54,-0.5384,-0.5372,-0.5362,-0.5346,-0.5336,-0.533,-0.5327,-0.5319,-0.5318,-0.5319,-0.5318,-0.5314,-0.5314,-0.5315,-0.5305,-0.5305,-0.5305,0,0,-0.5496,-0.5483,-0.5474,-0.5463,-0.5446,-0.5435,-0.5433,-0.5413,-0.5406,-0.5393,-0.5382,-0.5373,-0.5353,-0.5342,-0.5334,-0.5335,-0.5327,-0.5332,-0.5338,-0.5334,-0.5334,-0.5335,-0.5336,-0.5336,-0.5332,-0.5332,-0.5332,0,-0.5503,-0.5486,-0.5471,-0.5461,-0.5453,-0.5439,-0.5431,-0.5421,-0.54,-0.5395,-0.5392,-0.5368,-0.5356,-0.5343,-0.5344,-0.5338,-0.5336,-0.5334,-0.5336,-0.5336,-0.5336,-0.5337,-0.5337,-0.5332,-0.5332,-0.5332,-0.5332,0,-0.5497,-0.5486,-0.5481,-0.5462,-0.5453,-0.5444,-0.5429,-0.5422,-0.5413,-0.5403,-0.5391,-0.5377,-0.5363,-0.5359,-0.535,-0.5346,-0.5345,-0.5339,-0.5333,-0.5338,-0.5338,-0.5339,-0.5334,-0.5333,-0.5333,-0.5333,0,0,-0.5507,-0.5481,-0.548,-0.5472,-0.5453,-0.5444,-0.5435,-0.5421,-0.5416,-0.5403,-0.5396,-0.538,-0.5375,-0.5366,-0.5357,-0.5353,-0.5356,-0.5348,-0.5347,-0.535,-0.5351,-0.5356,-0.5356,-0.5351,-0.5351,-0.5351,-0.5353,0,-0.5506,-0.5489,-0.5477,-0.5465,-0.5455,-0.5442,-0.5435,-0.5423,-0.5413,-0.5404,-0.5394,-0.5383,-0.5377,-0.5372,-0.5368,-0.5357,-0.5356,-0.5356,-0.5344,-0.5344,-0.5348,-0.5356,-0.5361,-0.5363,-0.5353,-0.5353,-0.5353,0,-0.5503,-0.5491,-0.5478,-0.5462,-0.5457,-0.5451,-0.5438,-0.5429,-0.5416,-0.5409,-0.5401,-0.5391,-0.5382,-0.5378,-0.5366,-0.5367,-0.5362,-0.5356,-0.5355,-0.5353,-0.5348,-0.5355,-0.5363,-0.5364,-0.5353,-0.5353,-0.5353,0,-0.5512,-0.5493,-0.5483,-0.5477,-0.5457,-0.5453,-0.5445,-0.5432,-0.5425,-0.5414,-0.5409,-0.5397,-0.5391,-0.5383,-0.5371,-0.5368,-0.5361,-0.5355,-0.5355,-0.5356,-0.5354,-0.5354,-0.5362,-0.5351,-0.5351,-0.5351,-0.5351,0,-0.5513,-0.5506,-0.5487,-0.5481,-0.5473,-0.546,-0.5452,-0.5443,-0.5432,-0.5425,-0.5414,-0.5407,-0.5392,-0.5384,-0.5375,-0.5367,-0.5364,-0.5359,-0.5357,-0.536,-0.536,-0.5356,-0.5355,-0.5351,-0.5351,-0.5351,-0.5351,0,-0.5521,-0.5508,-0.5497,-0.548,-0.5476,-0.5471,-0.5456,-0.5451,-0.5441,-0.5432,-0.5429,-0.5415,-0.5405,-0.5392,-0.5378,-0.5372,-0.5366,-0.5362,-0.537,-0.5369,-0.537,-0.537,-0.5375,-0.5375,-0.5364,-0.5364,-0.5364,0,-0.5522,-0.5516,-0.5499,-0.5494,-0.5486,-0.5477,-0.547,-0.5457,-0.545,-0.5436,-0.5432,-0.5422,-0.5412,-0.5398,-0.5386,-0.5376,-0.5372,-0.5374,-0.537,-0.5374,-0.5372,-0.5373,-0.5372,-0.5375,-0.5375,-0.5375,-0.5376,0,-0.5526,-0.552,-0.551,-0.5499,-0.5491,-0.5481,-0.5471,-0.5468,-0.5453,-0.5446,-0.5436,-0.5429,-0.5416,-0.5406,-0.5394,-0.5387,-0.5379,-0.5377,-0.5377,-0.538,-0.5385,-0.5383,-0.5373,-0.5377,-0.5377,-0.5377,-0.5377,-0.5377,-0.553,-0.5525,-0.5513,-0.5503,-0.5494,-0.5485,-0.548,-0.547,-0.5461,-0.5449,-0.5442,-0.5433,-0.5422,-0.5406,-0.5399,-0.5392,-0.5389,-0.5388,-0.5388,-0.5388,-0.5389,-0.5386,-0.539,-0.5389,-0.5389,-0.5389,-0.5389,0,-0.5533,-0.5525,-0.5516,-0.5503,-0.5496,-0.549,-0.5479,-0.5473,-0.5465,-0.5455,-0.5446,-0.5436,-0.5427,-0.5415,-0.5405,-0.5402,-0.5398,-0.54,-0.54,-0.5398,-0.5392,-0.5393,-0.5403,-0.5403,-0.5403,-0.5403,-0.5403,-0.5403,-0.5534,-0.5525,-0.5519,-0.5506,-0.5498,-0.5489,-0.5483,-0.5476,-0.5468,-0.5457,-0.5449,-0.5442,-0.5432,-0.5421,-0.5413,-0.541,-0.5407,-0.541,-0.5406,-0.54,-0.5399,-0.5397,-0.5399,-0.5409,-0.5409,-0.5412,-0.5412,-0.5412]},{"header":{"parameterUnit":"m.s-1","parameterCategory":1,"la1":30.2991,"la2":30.254,"lo1":-89.0895,"lo2":-89.0444,"dy":0.0017,"dx":0.0017,"nx":28,"ny":28,"refTime":"2025-04-30T09:00:00:Z","depth":0,"parameterNumber":3,"parameterNumberName":"V-component_of_WINDS"},"data":[0,0,0,0,0,0,0,0,0,0,0,0,0,0,0,0,0,0,0,0,0,0,0,0,0,0,0,0,0,0,0,0,0,0,0,0,0,0,0,0,0,0,0,0,0,0,0,0,0,0,0,0,0,0,0,0,0,0,5.1607,5.1607,0,5.1554,5.1554,5.1553,5.1515,5.1514,5.1514,5.1514,5.1455,5.1453,5.1452,0,0,0,0,0,0,0,0,0,0,0,0,0,5.167,5.1669,5.1607,5.1606,5.1606,5.1554,5.1554,5.1553,5.1515,5.1514,5.1514,5.1514,5.1455,5.1453,5.1452,0,0,0,0,0,0,0,0,0,0,0,0,0,5.1633,5.1669,5.1607,5.1581,5.1578,5.1554,5.1554,5.1553,5.1515,5.1514,5.1514,5.1513,5.1456,5.1454,5.1452,5.1449,0,0,5.1446,5.1445,0,0,0,0,0,0,0,0,5.1635,5.163,5.1585,5.1583,5.1579,5.1541,5.1554,5.1518,5.1515,5.1539,5.1514,5.1513,5.1483,5.1479,5.147,5.1446,5.1444,5.1446,5.1444,5.1444,5.1443,0,0,0,0,0,0,0,5.1638,5.1632,5.1586,5.1585,5.1581,5.157,5.1564,5.1547,5.1514,5.1536,5.1534,5.1528,5.1481,5.1472,5.1468,5.1443,5.1446,5.1444,5.1443,5.1442,5.1413,5.1413,0,0,0,0,0,0,5.1645,5.1635,5.1588,5.1584,5.1607,5.1569,5.1563,5.1553,5.1514,5.1508,5.1529,5.1527,5.1475,5.1471,5.1466,5.1459,5.1444,5.1442,5.1441,5.1412,5.1413,5.1413,0,0,0,0,0,0,5.1646,5.1641,5.159,5.1609,5.1602,5.1569,5.1559,5.1553,5.1543,5.1508,5.1502,5.1525,5.1475,5.1469,5.1454,5.1457,5.1441,5.1439,5.1412,5.1413,5.1413,5.1447,0,0,0,0,0,0,5.1648,5.1642,5.1642,5.1609,5.1601,5.158,5.1559,5.1552,5.154,5.1537,5.1503,5.1497,5.1474,5.1457,5.1452,5.1454,5.1438,5.1411,5.1412,5.1413,5.1445,5.1449,5.1451,0,0,0,0,0,5.1651,5.1652,5.1642,5.1636,5.16,5.158,5.1575,5.155,5.1541,5.154,5.1517,5.1498,5.1458,5.1456,5.1449,5.1451,5.1411,5.1412,5.1413,5.1444,5.1448,5.1451,0,0,0,0,0,0,5.1684,5.1648,5.1636,5.1627,5.1607,5.1574,5.1571,5.1555,5.1536,5.1534,5.1502,5.1494,5.1482,5.1465,5.1464,5.1446,5.1432,5.1432,5.1458,5.1461,5.1464,5.1468,5.1436,0,0,0,0,0,5.1691,5.168,5.1648,5.1643,5.1634,5.1605,5.1595,5.1578,5.1555,5.1546,5.1522,5.15,5.1482,5.1471,5.1452,5.1443,5.1434,5.1441,5.1444,5.1447,5.1447,5.1439,5.1442,5.1416,5.1416,5.1416,0,0,5.1704,5.1683,5.1677,5.1649,5.1632,5.1619,5.1598,5.1585,5.1575,5.1543,5.1528,5.151,5.1483,5.147,5.1464,5.1456,5.1452,5.1448,5.145,5.1448,5.144,5.1443,5.1445,5.1417,5.1417,5.1417,0,0,5.1722,5.1705,5.1699,5.1682,5.1657,5.1637,5.1636,5.1605,5.1592,5.1577,5.1553,5.1539,5.1509,5.1491,5.1477,5.1488,5.1469,5.1483,5.1498,5.1491,5.1493,5.1495,5.1498,5.1499,5.1483,5.1483,5.1483,0,5.1741,5.1722,5.1698,5.1687,5.1675,5.1647,5.164,5.1625,5.1594,5.1585,5.1577,5.1539,5.1519,5.1501,5.1504,5.1494,5.149,5.1486,5.1495,5.1497,5.1498,5.15,5.1501,5.1485,5.1484,5.1484,5.1484,0,5.1747,5.1734,5.1732,5.1705,5.1693,5.1684,5.1656,5.1646,5.163,5.1611,5.1594,5.1569,5.1545,5.154,5.1523,5.1519,5.1515,5.1502,5.1487,5.1502,5.1504,5.1505,5.1487,5.1486,5.1486,5.1485,0,0,5.1783,5.1743,5.1742,5.1729,5.1699,5.1688,5.1678,5.1656,5.1647,5.1627,5.1616,5.1592,5.1579,5.1564,5.1545,5.1539,5.1548,5.1526,5.1525,5.153,5.1541,5.1551,5.1553,5.1536,5.1536,5.1536,5.1543,0,5.1795,5.1776,5.1754,5.1742,5.1729,5.1703,5.1693,5.1673,5.1655,5.164,5.1619,5.1602,5.1588,5.1578,5.1571,5.1548,5.1549,5.1548,5.1524,5.1523,5.1531,5.1554,5.1564,5.1572,5.1544,5.1544,5.1544,0,5.1807,5.1789,5.1777,5.1748,5.1742,5.1734,5.1711,5.1698,5.1674,5.1661,5.1645,5.1624,5.161,5.1598,5.1576,5.1576,5.1564,5.1552,5.1551,5.1547,5.1534,5.1549,5.1574,5.1575,5.1545,5.1545,5.1545,0,5.1834,5.1807,5.1796,5.1786,5.1752,5.1747,5.1732,5.1707,5.1696,5.1675,5.1667,5.1645,5.1633,5.1615,5.1589,5.1583,5.157,5.1556,5.1557,5.1558,5.1555,5.1556,5.1578,5.155,5.155,5.155,5.155,0,5.1849,5.1842,5.1808,5.1801,5.1792,5.1765,5.1756,5.1739,5.1718,5.1705,5.1681,5.167,5.1636,5.1621,5.16,5.1585,5.1579,5.1567,5.1562,5.1569,5.157,5.156,5.1559,5.155,5.155,5.155,5.155,0,5.1878,5.1854,5.184,5.181,5.1802,5.1796,5.1769,5.1761,5.1741,5.1726,5.1721,5.169,5.167,5.1643,5.1614,5.16,5.1588,5.1579,5.1596,5.1593,5.1596,5.1596,5.1612,5.1612,5.1585,5.1585,5.1585,0,5.1889,5.1883,5.1852,5.1843,5.183,5.1815,5.1804,5.1777,5.1765,5.1737,5.1731,5.171,5.1692,5.1661,5.1635,5.1613,5.1603,5.161,5.1599,5.1607,5.1602,5.1602,5.1601,5.1612,5.1613,5.1613,5.1613,0,5.191,5.1899,5.1884,5.1865,5.1852,5.1835,5.1816,5.181,5.1779,5.1766,5.1747,5.1733,5.1704,5.1683,5.1657,5.164,5.1621,5.1617,5.1616,5.1623,5.1633,5.1627,5.1603,5.1617,5.1616,5.1616,5.1616,5.1616,5.193,5.1923,5.1901,5.1884,5.1868,5.1852,5.1842,5.1822,5.1806,5.1782,5.1766,5.1747,5.1722,5.1686,5.167,5.1653,5.1645,5.1644,5.1644,5.1644,5.1646,5.1637,5.1648,5.1648,5.1648,5.1648,5.1648,0,5.195,5.1934,5.1919,5.1895,5.1882,5.1867,5.1846,5.1836,5.182,5.1799,5.1782,5.1759,5.1738,5.171,5.1687,5.1679,5.167,5.1674,5.1673,5.1669,5.1654,5.1657,5.1682,5.1682,5.1682,5.1682,5.1682,5.1682,5.1958,5.1947,5.1933,5.1912,5.1896,5.1879,5.1868,5.1852,5.1835,5.1811,5.1794,5.1777,5.1753,5.1728,5.1707,5.1699,5.1691,5.1698,5.1688,5.1674,5.1671,5.1668,5.167,5.1697,5.1697,5.1704,5.1704,5.1704]}]]